LUCH (OLYMP) (40258 NORAD) Tracking and Keplerian Element Data

This shows tracking and keplerian element data for the satellite.

Feedback or suggestion? Click here.




ElementValue
Catalog40258
NameLUCH (OLYMP)
Epoch Orbit2735
Epoch Day269.7387103
Epoch Year2022
RAAN252.6358
Inclination0.0205
Eccentricity6.12E-05
Argument of Perigee276.2971
Mean Anonmoly84.4482
Mean Motion1.002712
Decay Rate-1.38E-06
L11 40258U 14058A 22269.73871030 -.00000138 00000+0 00000+0 0 9998
L22 40258 0.0205 252.6358 0000612 276.2971 84.4482 1.00271200 27352

Live tracking and technical data element details for LUCH (OLYMP) (NORAD 40258). LUCH (OLYMP) can be tracked NOW for your location showing map with azimuth and elevation plus other details from your city location.

Track the satellite on the map from your city or location and see movement details for azimuth, elevation, latitude, longitude, range, height, and movement on the map or in text.







IsCatalogInMostPopularTable: catalog: 40258, numindb: 699
Update: records affected: 1



GetName: 40258 LUCH (OLYMP)

Hit Count: updated at: Fri, 30 Sep 2022 04:15:57 GMT